GFSSW_850_dewp_276.txt.gz
Dewpoint
-3 -2 -2 -2 -3 -3 -3 -3 -4 -4 -4 -5 -5 -5 -6 -6 -7 -5 -10 -10 -7 -5 -3 2 2 3 1 -2 1 5 5 6 2 -0 -4 -12 -13 -13 -14 -14 -14 -14 -14 -15 -16
-2 -2 -2 -2 -3 -3 -4 -3 -4 -4 -5 -5 -5 -7 -7 -7 -6 -7 -10 -11 -6 -4 -2 2 1 2 -0 -2 -2 2 5 2 -3 -4 -9 -12 -12 -13 -14 -14 -14 -15 -16 -16 -17
-2 -2 -1 -1 -2 -3 -3 -4 -5 -5 -5 -6 -8 -9 -8 -5 -5 -8 -11 -9 -5 -2 -1 1 2 -0 -2 -2 -2 -3 -0 -5 -6 -8 -11 -12 -12 -13 -13 -13 -14 -14 -16 -17 -18
-2 -2 -2 -2 -2 -2 -3 -5 -6 -6 -6 -9 -9 -11 -9 -6 -2 -10 -12 -10 -5 -3 0 1 1 -1 -3 -2 -3 -3 -6 -6 -8 -11 -11 -11 -12 -12 -12 -14 -14 -14 -15 -18 -19
-3 -2 -2 -2 -2 -2 -3 -5 -7 -6 -6 -9 -10 -10 -8 -7 -9 -10 -11 -10 -9 -5 -2 -1 -0 -2 -3 -3 -4 -6 -9 -9 -10 -11 -12 -12 -12 -13 -14 -15 -15 -15 -15 -20 -17
-4 -3 -2 -2 -2 -3 -3 -4 -7 -6 -6 -8 -10 -11 -8 -9 -9 -10 -10 -9 -8 -7 -4 -2 -1 -2 -4 -6 -5 -8 -10 -11 -11 -12 -12 -13 -14 -14 -15 -15 -15 -15 -19 -18 -15
-3 -4 -2 -2 -2 -3 -3 -3 -7 -7 -7 -8 -9 -12 -9 -9 -10 -10 -10 -8 -7 -5 -4 -2 -3 -5 -6 -8 -9 -9 -9 -11 -12 -12 -12 -13 -12 -13 -15 -15 -15 -18 -20 -16 -15
-3 -4 -4 -2 -2 -3 -3 -3 -6 -8 -7 -8 -10 -12 -10 -10 -10 -10 -10 -10 -8 -7 -6 -4 -5 -7 -7 -8 -8 -8 -8 -5 -9 -11 -12 -10 -7 -13 -15 -15 -18 -20 -19 -15 -15
-2 -3 -4 -4 -2 -2 -3 -3 -7 -9 -8 -10 -12 -11 -11 -10 -10 -10 -9 -10 -8 -7 -7 -7 -8 -7 -7 -5 -4 -5 -4 -4 -6 -11 -11 -9 -8 -11 -16 -16 -19 -20 -19 -15 -14
-2 -3 -3 -4 -3 -2 -3 -3 -8 -9 -9 -9 -10 -11 -11 -10 -10 -10 -10 -10 -9 -8 -8 -7 -8 -9 -8 -7 -11 -9 -4 -5 -4 -8 -11 -9 -8 -11 -15 -15 -17 -20 -19 -16 -15
-1 -2 -3 -4 -5 -2 -3 -6 -5 -6 -7 -9 -9 -11 -10 -10 -10 -10 -10 -10 -9 -8 -6 -8 -6 -6 -11 -9 -11 -9 -9 -8 -7 -7 -9 -8 -8 -9 -14 -16 -16 -19 -19 -17 -15
-1 -2 -3 -4 -5 -3 -3 -3 -3 -4 -5 -7 -8 -8 -9 -10 -10 -9 -10 -10 -8 -6 -8 -7 -6 -10 -13 -12 -13 -9 -8 -10 -9 -7 -9 -7 -7 -8 -13 -15 -15 -17 -19 -18 -16
-1 -1 -3 -4 -4 -3 -4 -3 -3 -5 -6 -8 -8 -9 -9 -10 -10 -9 -9 -9 -9 -9 -8 -6 -8 -11 -11 -12 -13 -12 -11 -13 -13 -10 -8 -8 -8 -11 -14 -14 -15 -15 -17 -18 -16
-1 -1 -2 -4 -4 -2 -2 -2 -4 -7 -8 -9 -8 -8 -9 -9 -9 -10 -8 -8 -9 -10 -11 -10 -13 -12 -11 -11 -14 -14 -12 -10 -9 -8 -7 -10 -7 -9 -12 -13 -17 -17 -18 -18 -16
1 -1 -2 -3 -2 -1 -1 -2 -6 -3 -6 -8 -8 -8 -8 -9 -9 -9 -8 -7 -8 -8 -8 -9 -10 -12 -11 -11 -15 -14 -11 -8 -8 -7 -6 -7 -6 -8 -12 -12 -13 -17 -17 -17 -16
2 -1 -1 -2 -4 -0 -1 -4 -4 -7 -5 -5 -8 -8 -7 -8 -7 -9 -9 -9 -9 -10 -10 -10 -12 -15 -14 -15 -15 -12 -8 -6 -4 -5 -6 -6 -6 -8 -9 -11 -13 -15 -17 -17 -16
4 2 -1 -2 -3 -2 -1 -3 -6 -5 -7 -5 -6 -7 -7 -7 -8 -8 -9 -8 -8 -7 -7 -8 -9 -12 -16 -13 -13 -12 -10 -7 -11 -8 -8 -6 -7 -7 -11 -13 -14 -15 -17 -17 -16
7 4 -1 -1 -3 -1 -2 -2 -5 -7 -4 -6 -6 -6 -6 -7 -7 -7 -7 -7 -8 -6 -5 -5 -7 -10 -16 -15 -14 -12 -11 -8 -12 -9 -9 -9 -9 -11 -14 -16 -17 -16 -17 -18 -15
5 6 -1 -2 -3 -2 -2 -1 -4 -3 -4 -4 -6 -6 -5 -6 -7 -7 -7 -7 -8 -7 -8 -5 -5 -13 -16 -17 -14 -12 -10 -12 -9 -6 -5 -7 -9 -11 -16 -17 -17 -18 -18 -17 -15
6 5 -0 -1 -3 -2 -3 -1 -4 -4 -5 -6 -4 -6 -4 -4 -5 -7 -7 -8 -7 -9 -8 -7 -8 -10 -12 -14 -15 -12 -12 -11 -7 -7 -9 -9 -10 -10 -12 -14 -16 -16 -17 -17 -16
7 2 -1 -1 -2 -1 0 -2 -4 -4 -5 -6 -5 -4 -5 -4 -5 -6 -7 -7 -8 -8 -10 -9 -9 -9 -10 -10 -11 -13 -12 -10 -9 -7 -4 -6 -8 -12 -13 -13 -15 -17 -17 -17 -17
5 1 -0 0 -0 0 0 -2 -3 -3 -5 -5 -6 -5 -4 -4 -5 -6 -6 -7 -7 -10 -9 -10 -9 -8 -8 -12 -12 -12 -12 -10 -2 -7 -5 -3 -6 -12 -15 -15 -15 -16 -17 -18 -17
2 0 0 0 1 0 -1 -1 -2 -3 -4 -5 -5 -5 -5 -4 -4 -5 -6 -6 -7 -9 -9 -9 -8 -9 -11 -9 -9 -10 -11 -8 -6 -5 -6 -2 -6 -15 -15 -15 -14 -16 -17 -18 -18
2 1 0 -0 -0 -1 -1 -1 -1 -3 -3 -5 -5 -5 -5 -4 -4 -4 -4 -6 -7 -7 -5 -9 -8 -9 -6 -11 -7 -8 -9 -7 -8 -4 -4 -5 -8 -10 -14 -14 -15 -16 -17 -18 -19
3 1 1 1 0 -1 -2 -1 -1 -1 -3 -4 -4 -4 -4 -3 -4 -3 -5 -7 -8 -3 -7 -8 -7 -6 -6 -6 -6 -6 -8 -7 -7 -9 -6 -8 -7 -10 -11 -14 -15 -16 -17 -17 -18
3 2 2 1 1 -0 -0 -1 0 -1 -3 -4 -4 -4 -4 -4 -4 -4 -4 -6 -7 -6 -9 -7 -8 -6 -7 -8 -5 -5 -5 -7 -8 -9 -8 -8 -8 -10 -9 -10 -14 -16 -17 -16 -16
6 3 2 1 1 0 0 -1 -1 -2 -2 -4 -5 -4 -3 -4 -5 -5 -6 -7 -8 -7 -8 -7 -6 -5 -7 -4 -4 -5 -6 -5 -8 -9 -9 -8 -10 -14 -14 -13 -13 -14 -16 -16 -15

GFSSW_850_dewp_279.txt.gz
Dewpoint
-3 -3 -2 -2 -3 -3 -3 -3 -4 -5 -5 -5 -5 -5 -7 -6 -7 -6 -9 -10 -8 -5 -3 2 2 2 1 -2 2 5 6 5 2 1 -2 -11 -12 -13 -13 -13 -14 -14 -14 -15 -16
-2 -2 -2 -2 -3 -3 -3 -3 -4 -5 -5 -5 -5 -7 -8 -7 -6 -6 -10 -10 -5 -4 -2 3 1 2 -2 -3 -2 3 6 3 -2 -4 -7 -11 -11 -13 -13 -13 -14 -15 -16 -16 -17
-2 -2 -2 -2 -2 -3 -3 -4 -5 -5 -5 -5 -8 -9 -9 -5 -5 -8 -11 -9 -5 -2 -1 1 1 -0 -3 -3 -3 -3 1 -4 -7 -7 -10 -11 -12 -13 -12 -11 -14 -15 -16 -17 -18
-3 -2 -2 -2 -2 -2 -3 -4 -6 -6 -6 -7 -9 -11 -9 -6 -3 -9 -11 -11 -7 -3 0 1 1 -1 -2 -1 -4 -3 -7 -6 -9 -10 -11 -10 -12 -12 -12 -13 -14 -14 -16 -18 -19
-4 -2 -2 -2 -2 -3 -3 -4 -6 -6 -6 -9 -9 -10 -8 -8 -9 -10 -11 -10 -10 -6 -2 -0 -0 -2 -1 -3 -5 -6 -8 -10 -11 -11 -11 -12 -12 -12 -14 -14 -14 -15 -16 -19 -18
-3 -4 -2 -2 -2 -3 -3 -4 -6 -7 -6 -8 -9 -11 -9 -9 -9 -10 -10 -9 -8 -7 -4 -2 -1 -2 -5 -7 -5 -9 -10 -11 -11 -12 -12 -12 -14 -14 -15 -15 -15 -15 -17 -18 -17
-2 -3 -4 -2 -2 -2 -3 -3 -4 -7 -7 -8 -9 -11 -10 -9 -9 -10 -11 -8 -7 -6 -5 -2 -3 -5 -7 -8 -10 -10 -8 -10 -12 -12 -12 -13 -11 -12 -15 -15 -16 -17 -19 -17 -16
-2 -3 -4 -4 -2 -2 -3 -3 -4 -7 -8 -8 -10 -12 -10 -10 -10 -10 -10 -9 -7 -6 -4 -4 -6 -7 -8 -8 -8 -7 -7 -4 -9 -11 -12 -10 -6 -12 -15 -15 -16 -18 -18 -16 -15
-1 -2 -3 -4 -4 -2 -3 -3 -4 -8 -8 -9 -12 -11 -11 -10 -10 -10 -9 -9 -7 -7 -7 -7 -8 -8 -7 -4 -4 -4 -4 -4 -5 -10 -11 -9 -7 -12 -15 -16 -17 -19 -19 -16 -15
-1 -1 -3 -3 -4 -3 -3 -3 -5 -9 -9 -9 -9 -10 -11 -10 -10 -10 -10 -10 -9 -8 -8 -7 -8 -6 -6 -8 -9 -10 -5 -6 -4 -7 -10 -9 -8 -10 -15 -16 -17 -19 -20 -17 -16
-2 -2 -2 -3 -4 -4 -3 -4 -6 -5 -7 -9 -9 -11 -10 -10 -10 -10 -10 -9 -9 -8 -6 -8 -5 -5 -9 -9 -11 -9 -8 -8 -7 -7 -9 -8 -8 -8 -13 -15 -16 -19 -19 -18 -16
-1 -2 -2 -3 -4 -3 -3 -4 -4 -4 -5 -7 -8 -9 -9 -10 -10 -10 -10 -10 -8 -6 -8 -6 -5 -10 -12 -12 -12 -9 -8 -9 -9 -7 -8 -7 -7 -8 -10 -14 -15 -17 -18 -18 -17
1 -2 -2 -3 -4 -3 -4 -3 -3 -5 -6 -8 -8 -9 -9 -9 -10 -9 -9 -9 -8 -8 -8 -5 -8 -11 -11 -12 -12 -12 -10 -12 -13 -10 -8 -8 -8 -9 -13 -14 -15 -15 -16 -18 -17
2 -1 -2 -3 -3 -2 -2 -2 -3 -6 -8 -9 -8 -8 -9 -9 -9 -10 -8 -9 -9 -9 -9 -9 -13 -11 -11 -11 -13 -14 -12 -11 -9 -7 -6 -9 -6 -8 -11 -13 -15 -15 -15 -16 -17
3 1 -2 -2 -3 -1 -1 -2 -6 -3 -5 -8 -8 -8 -8 -9 -9 -9 -8 -7 -8 -9 -8 -9 -10 -11 -11 -11 -15 -14 -10 -8 -7 -6 -5 -7 -7 -8 -11 -10 -12 -15 -16 -16 -17
6 2 -1 -1 -3 -1 -0 -3 -3 -7 -5 -6 -8 -8 -8 -8 -8 -9 -9 -9 -9 -9 -10 -10 -12 -15 -14 -14 -15 -10 -7 -5 -5 -5 -7 -6 -6 -9 -9 -10 -12 -13 -15 -16 -17
7 5 1 -2 -2 -2 -1 -3 -6 -5 -8 -5 -6 -8 -8 -7 -8 -9 -9 -8 -8 -8 -8 -8 -10 -12 -16 -12 -13 -12 -9 -5 -9 -6 -8 -6 -7 -7 -10 -11 -13 -13 -14 -16 -17
7 6 4 -1 -2 -1 -1 -4 -5 -7 -6 -6 -6 -7 -6 -7 -8 -7 -7 -7 -8 -7 -5 -5 -8 -10 -16 -15 -13 -12 -10 -5 -12 -8 -8 -9 -7 -9 -13 -14 -15 -16 -14 -16 -17
7 5 5 -1 -2 -3 -2 -3 -4 -5 -5 -4 -6 -6 -6 -6 -7 -7 -7 -7 -8 -7 -9 -5 -5 -13 -16 -17 -13 -11 -10 -12 -8 -6 -5 -7 -9 -11 -15 -17 -17 -16 -15 -17 -18
7 6 5 -1 -2 -3 -3 -1 -4 -5 -5 -6 -4 -6 -5 -5 -5 -7 -7 -8 -7 -8 -9 -7 -7 -10 -13 -14 -14 -12 -12 -9 -7 -4 -8 -9 -9 -8 -11 -12 -15 -16 -17 -18 -18
7 5 1 -1 -3 -1 1 -1 -3 -5 -5 -6 -5 -4 -5 -4 -5 -6 -6 -8 -8 -9 -10 -9 -9 -9 -10 -9 -10 -12 -12 -9 -8 -7 -3 -7 -7 -11 -11 -11 -14 -16 -18 -19 -18
7 3 0 -0 -1 -0 0 -2 -3 -3 -4 -5 -6 -5 -5 -4 -4 -5 -6 -7 -7 -9 -8 -10 -9 -8 -8 -12 -12 -13 -13 -9 0 -5 -6 -2 -4 -11 -13 -14 -14 -15 -17 -18 -18
5 2 0 0 1 0 -1 -1 -1 -3 -3 -4 -4 -5 -5 -4 -4 -5 -6 -6 -7 -10 -9 -8 -7 -8 -11 -10 -9 -10 -11 -8 -6 -5 -4 1 -4 -13 -15 -15 -15 -15 -16 -17 -18
2 2 0 0 -0 -1 -1 -1 -1 -3 -3 -4 -5 -5 -5 -4 -5 -4 -4 -6 -7 -7 -6 -9 -8 -8 -5 -10 -7 -8 -9 -7 -8 -2 -2 -5 -8 -10 -11 -13 -15 -15 -16 -16 -17
3 2 1 1 0 -1 -2 -2 -1 -1 -3 -4 -4 -4 -4 -3 -4 -3 -5 -7 -8 -2 -7 -8 -7 -7 -8 -9 -7 -7 -8 -7 -6 -8 -4 -8 -7 -9 -10 -12 -15 -15 -16 -17 -17
4 2 1 0 0 -0 1 -0 -0 -2 -3 -3 -3 -4 -4 -3 -4 -4 -4 -6 -6 -6 -7 -7 -6 -6 -6 -8 -5 -4 -4 -7 -8 -9 -8 -9 -9 -10 -11 -12 -13 -15 -15 -17 -17
6 4 2 2 0 0 0 -0 -1 -1 -2 -4 -4 -4 -4 -4 -5 -6 -6 -7 -7 -6 -7 -6 -5 -5 -6 -6 -6 -5 -6 -5 -7 -8 -9 -7 -8 -12 -12 -11 -11 -12 -15 -16 -16

GFSSW_850_dewp_285.txt.gz
Dewpoint
-2 -2 -2 -2 -3 -3 -3 -4 -4 -5 -5 -5 -5 -6 -8 -7 -7 -7 -9 -11 -6 -5 -3 4 4 2 1 2 4 5 3 -0 2 1 2 -4 -4 -8 -8 -9 -11 -11 -10 -10 -9
-2 -2 -2 -2 -3 -3 -3 -4 -4 -5 -5 -5 -6 -8 -9 -8 -4 -8 -9 -11 -6 -4 -2 4 3 2 0 -0 -1 2 1 4 0 -1 -1 -4 -3 -7 -7 -9 -11 -11 -11 -11 -10
-3 -2 -2 -2 -2 -3 -3 -3 -5 -6 -6 -6 -8 -9 -10 -5 -3 -8 -10 -11 -7 -2 1 3 2 0 0 -0 -3 -2 1 -0 -2 -3 -3 -5 -6 -7 -7 -6 -9 -11 -11 -11 -12
-4 -3 -2 -2 -2 -2 -3 -3 -5 -6 -6 -6 -9 -11 -9 -4 -3 -8 -12 -11 -9 -2 1 1 0 -0 -0 -1 -3 -2 -3 -3 -4 -6 -5 -5 -7 -7 -6 -7 -10 -11 -11 -12 -13
-3 -4 -3 -2 -2 -2 -3 -3 -4 -6 -6 -6 -9 -11 -8 -7 -8 -10 -11 -10 -9 -6 1 0 -1 -1 -1 -3 -5 -4 -5 -6 -7 -7 -6 -7 -7 -8 -9 -10 -11 -12 -12 -12 -13
-3 -3 -4 -4 -2 -2 -3 -3 -4 -5 -7 -6 -8 -12 -7 -8 -9 -10 -10 -9 -6 -3 -2 -1 -2 -2 -2 -5 -4 -5 -6 -7 -7 -7 -8 -7 -8 -8 -10 -12 -13 -13 -13 -13 -11
-2 -3 -3 -4 -4 -2 -3 -3 -3 -4 -7 -7 -8 -10 -9 -8 -9 -7 -11 -10 -8 -3 -2 -2 -2 -3 -4 -5 -6 -6 -5 -7 -7 -7 -8 -8 -7 -8 -10 -12 -13 -13 -13 -12 -10
-2 -2 -3 -4 -5 -4 -3 -3 -3 -4 -7 -7 -9 -11 -8 -10 -10 -9 -7 -6 -7 -5 -3 -3 -4 -4 -5 -6 -7 -6 -5 -3 -7 -8 -9 -8 -3 -9 -11 -13 -13 -13 -13 -11 -11
-2 -2 -2 -4 -4 -5 -3 -3 -3 -4 -8 -8 -9 -10 -9 -10 -9 -10 -9 -6 -6 -7 -8 -8 -5 -5 -5 -5 -5 -5 -7 -7 -4 -8 -8 -8 -5 -8 -12 -13 -13 -14 -13 -11 -11
-2 -3 -3 -3 -4 -5 -3 -3 -3 -6 -9 -8 -9 -9 -10 -9 -9 -10 -10 -6 -6 -6 -5 -5 -6 -5 -5 -6 -6 -9 -11 -11 -8 -6 -8 -7 -7 -8 -11 -12 -12 -13 -14 -12 -12
-2 -2 -3 -3 -4 -5 -3 -3 -3 -3 -6 -6 -8 -9 -10 -10 -10 -9 -10 -8 -8 -7 -6 -6 -5 -5 -6 -8 -10 -11 -11 -10 -9 -7 -7 -7 -7 -8 -9 -11 -11 -12 -14 -14 -13
1 -2 -3 -3 -4 -4 -3 -2 -5 -3 -3 -5 -7 -9 -10 -9 -9 -9 -10 -8 -8 -7 -7 -6 -5 -8 -11 -10 -10 -10 -10 -9 -8 -8 -9 -9 -8 -9 -9 -9 -11 -11 -13 -14 -14
6 -2 -3 -3 -4 -3 -0 -3 -3 -5 -4 -6 -7 -8 -8 -9 -9 -9 -9 -9 -8 -7 -7 -6 -6 -10 -9 -9 -9 -10 -9 -11 -11 -11 -9 -8 -5 -7 -9 -8 -9 -10 -11 -13 -14
6 2 -3 -3 -1 -2 0 -3 -4 -6 -5 -6 -7 -7 -8 -8 -8 -9 -9 -7 -9 -7 -7 -7 -9 -9 -8 -8 -10 -7 -12 -11 -9 -7 -6 -8 -6 -6 -8 -8 -9 -10 -11 -12 -13
7 5 -2 -3 -2 1 -0 -2 -5 -3 -2 -8 -8 -8 -8 -8 -7 -7 -8 -7 -7 -8 -8 -6 -9 -9 -8 -8 -11 -8 -10 -9 -7 -7 -6 -5 -5 -7 -9 -9 -10 -11 -11 -11 -12
7 6 -0 -2 -3 -1 -1 -3 -4 -2 -3 -5 -7 -7 -8 -7 -8 -7 -8 -7 -7 -7 -8 -8 -11 -11 -10 -12 -13 -10 -8 -6 -5 -5 -1 -5 -8 -6 -9 -11 -11 -12 -12 -11 -12
6 6 3 -2 1 -2 -1 -1 -3 -4 -8 -5 -5 -7 -7 -7 -7 -8 -7 -7 -6 -5 -5 -7 -8 -12 -13 -10 -10 -9 -7 -2 1 1 -4 -7 -7 -10 -11 -11 -12 -13 -13 -12 -12
5 6 5 0 -2 -3 -1 -3 -2 -5 -7 -6 -6 -6 -5 -7 -7 -7 -7 -6 -7 -7 -8 -7 -4 -8 -13 -11 -10 -9 -7 -5 -1 -4 -6 -7 -4 -7 -11 -11 -11 -12 -13 -13 -12
3 7 6 4 -2 -3 -0 -1 -6 -6 -7 -5 -6 -5 -5 -6 -6 -7 -7 -7 -8 -8 -7 -8 -5 -12 -14 -15 -13 -7 -5 -8 -6 -6 -6 -6 -8 -8 -12 -12 -12 -11 -12 -12 -12
5 7 5 4 -2 -3 -1 -1 -5 -6 -5 -5 -4 -5 -4 -5 -5 -5 -5 -7 -6 -8 -8 -8 -6 -9 -11 -13 -12 -11 -11 -5 -4 4 -1 -9 -9 -10 -7 -10 -12 -12 -12 -11 -11
6 6 4 4 -2 -2 -1 -3 -4 -5 -5 -4 -4 -4 -4 -4 -5 -5 -6 -6 -7 -7 -8 -8 -8 -6 -8 -8 -7 -9 -9 -10 -7 -6 -2 -4 -9 -12 -11 -10 -11 -12 -12 -12 -11
6 3 3 3 -0 -2 -2 -4 -2 -4 -4 -4 -5 -5 -4 -4 -4 -4 -4 -5 -7 -8 -7 -8 -7 -7 -8 -10 -11 -11 -10 -10 -2 2 -6 -1 -1 -13 -13 -12 -11 -12 -13 -12 -11
4 3 2 1 3 1 -2 -2 -2 -3 -4 -4 -4 -4 -5 -4 -2 -3 -4 -4 -5 -7 -7 -8 -7 -6 -5 -6 -8 -8 -9 -10 -6 -5 -1 2 -2 -12 -12 -12 -12 -11 -12 -13 -12
5 3 2 1 1 1 0 -0 -1 -2 -3 -4 -5 -4 -4 -3 -4 -2 -3 -4 -5 -7 -8 -7 -6 -5 -3 -4 -5 -4 -6 -9 -8 -2 -0 -2 -6 -8 -8 -9 -12 -12 -11 -12 -13
5 3 3 3 1 1 -1 -1 -0 -1 -3 -3 -4 -4 -4 -3 -3 -3 -4 -4 -6 -4 -7 -6 -4 -5 -6 -7 -8 -8 -7 -6 -4 -8 -5 -6 -5 -7 -8 -8 -10 -9 -11 -11 -12
5 3 3 2 2 1 1 1 0 -1 -2 -2 -2 -4 -4 -3 -4 -4 -4 -3 -3 -4 -5 -6 -3 -5 -4 -6 -7 -6 -7 -7 -6 -7 -7 -7 -6 -8 -9 -10 -11 -11 -11 -11 -11
6 4 3 3 1 1 2 1 -0 -2 -2 -3 -3 -3 -3 -4 -5 -5 -4 -4 -4 -3 -3 -4 -3 -3 -2 -6 -6 -3 -4 -5 -6 -7 -7 -5 -7 -9 -7 -8 -9 -9 -10 -11 -11

GFSSW_850_dewp_288.txt.gz
Dewpoint
-2 -2 -2 -2 -3 -3 -3 -4 -5 -5 -6 -6 -6 -6 -8 -7 -7 -7 -6 -11 -9 -6 -4 3 4 2 2 1 2 3 7 6 5 3 1 -3 -4 -7 -7 -9 -10 -10 -9 -8 -9
-2 -2 -2 -2 -3 -3 -3 -3 -5 -5 -5 -6 -6 -8 -10 -8 -6 -4 -8 -11 -8 -5 -2 4 4 2 1 -0 -1 1 7 4 0 -1 0 -3 -3 -6 -7 -9 -10 -10 -9 -10 -13
-4 -2 -2 -2 -2 -3 -3 -3 -5 -6 -6 -6 -8 -9 -10 -6 -2 -7 -9 -12 -8 -3 1 2 2 -0 -0 -0 -3 -2 3 0 -2 -2 -3 -4 -5 -6 -6 -5 -9 -10 -10 -11 -12
-4 -4 -2 -2 -3 -2 -3 -3 -4 -6 -6 -6 -9 -11 -9 -3 -3 -8 -11 -12 -11 -3 1 0 0 -0 0 -0 -4 -1 -4 -3 -4 -5 -4 -5 -7 -7 -6 -8 -9 -10 -10 -11 -12
-3 -4 -4 -3 -2 -3 -3 -3 -4 -6 -6 -6 -9 -11 -9 -4 -7 -9 -12 -11 -8 -5 1 0 -1 -1 1 -3 -5 -3 -5 -6 -6 -6 -6 -6 -6 -7 -8 -10 -10 -11 -11 -12 -13
-3 -3 -4 -4 -3 -2 -3 -3 -4 -5 -7 -6 -8 -12 -7 -6 -8 -10 -12 -10 -9 -4 -3 -1 -1 -2 -3 -5 -3 -5 -6 -6 -6 -7 -7 -6 -7 -8 -9 -11 -11 -11 -12 -12 -12
-2 -2 -3 -4 -5 -4 -3 -3 -4 -4 -7 -6 -8 -10 -8 -7 -9 -8 -11 -11 -9 -3 -2 -2 -2 -3 -4 -5 -6 -6 -5 -6 -7 -7 -7 -7 -6 -7 -10 -12 -12 -13 -12 -12 -11
-3 -3 -3 -4 -4 -5 -3 -3 -4 -4 -7 -7 -8 -11 -7 -10 -9 -10 -6 -7 -8 -5 -4 -3 -3 -4 -5 -6 -6 -5 -5 -0 -5 -7 -8 -8 -2 -7 -11 -12 -13 -13 -12 -12 -10
-3 -3 -3 -3 -4 -5 -4 -3 -4 -4 -8 -7 -8 -9 -8 -11 -9 -10 -8 -6 -7 -8 -8 -8 -5 -5 -5 -3 -2 -4 -2 -3 -3 -7 -7 -7 -4 -9 -11 -12 -12 -13 -13 -12 -10
-2 -3 -4 -4 -4 -6 -4 -3 -4 -5 -8 -8 -8 -9 -9 -9 -9 -10 -9 -6 -6 -6 -5 -5 -5 -2 -3 -3 -2 -6 -8 -9 -5 -6 -7 -6 -5 -8 -11 -12 -12 -12 -13 -12 -11
1 -3 -4 -4 -4 -6 -3 -3 -2 -3 -5 -6 -7 -9 -9 -10 -10 -9 -10 -8 -7 -7 -5 -5 -4 -2 -6 -7 -8 -8 -9 -8 -5 -7 -7 -5 -6 -6 -10 -11 -11 -11 -13 -13 -12
6 -1 -4 -4 -4 -4 -2 -0 -2 -2 -2 -4 -7 -9 -9 -9 -9 -9 -10 -8 -8 -5 -7 -5 -3 -8 -9 -8 -8 -8 -8 -7 -7 -8 -8 -8 -7 -7 -8 -10 -11 -11 -12 -13 -14
5 4 -3 -4 -4 -2 1 -2 -4 -4 -3 -5 -6 -7 -8 -10 -9 -9 -10 -9 -7 -5 -6 -5 -6 -10 -8 -7 -7 -7 -7 -8 -10 -8 -8 -7 -4 -5 -8 -7 -10 -10 -11 -12 -14
5 5 -3 -4 -1 -2 1 -3 -4 -6 -2 -5 -7 -7 -8 -7 -7 -8 -9 -7 -8 -6 -6 -6 -9 -8 -7 -6 -9 -5 -10 -10 -7 -5 -3 -7 -2 -4 -7 -7 -7 -9 -10 -11 -13
3 6 -0 -3 0 1 2 -2 -5 -2 2 -7 -7 -7 -8 -7 -7 -7 -9 -7 -6 -7 -7 -5 -8 -8 -6 -8 -10 -6 -9 -8 -6 -5 -4 -4 -4 -5 -7 -7 -8 -8 -10 -10 -11
4 6 2 -0 -3 -1 -2 -3 -4 1 -0 -5 -7 -7 -8 -7 -8 -7 -7 -7 -7 -7 -7 -7 -11 -10 -9 -11 -12 -9 -7 -5 -4 -3 1 -2 -5 -4 -6 -8 -9 -9 -9 -10 -11
4 6 5 -2 3 -2 -2 -2 1 -1 -6 -4 -5 -7 -7 -6 -7 -7 -6 -6 -4 -3 -3 -6 -7 -12 -13 -9 -9 -8 -5 2 5 3 3 -7 -6 -5 -9 -9 -10 -10 -11 -11 -11
2 5 6 1 -2 -3 -1 -1 2 -5 -6 -6 -6 -6 -5 -6 -7 -6 -6 -5 -6 -6 -5 -4 -2 -7 -12 -11 -9 -7 -6 -1 0 1 -1 -6 -4 -4 -9 -11 -12 -13 -12 -12 -11
1 4 6 5 -2 -3 1 1 -3 -4 -6 -5 -5 -4 -4 -5 -6 -6 -5 -5 -7 -7 -5 -5 -3 -12 -13 -14 -12 -7 -4 -8 -5 -5 -2 -1 -4 -7 -10 -10 -11 -12 -12 -13 -12
1 7 7 5 -1 -3 1 1 -3 -5 -5 -5 -3 -4 -3 -4 -5 -4 -4 -6 -5 -7 -8 -6 -5 -9 -11 -13 -12 -11 -10 -3 -2 6 4 -2 -6 -4 -7 -10 -10 -10 -11 -12 -12
2 6 5 5 -1 -1 1 -1 -4 -6 -5 -4 -3 -4 -4 -3 -4 -4 -5 -5 -6 -6 -7 -7 -7 -5 -8 -7 -6 -8 -7 -8 -6 -3 2 2 -1 -13 -7 -6 -10 -11 -11 -12 -11
6 4 3 4 0 -2 -1 -3 -4 -3 -4 -3 -4 -2 -3 -4 -3 -3 -4 -3 -7 -7 -6 -6 -4 -4 -6 -10 -10 -10 -8 -8 3 1 -3 4 1 -12 -11 -10 -10 -11 -11 -12 -12
6 3 3 3 5 3 -1 -2 -2 -2 -3 -3 -3 -3 -4 -3 -2 -2 -2 -4 -6 -6 -5 -6 -5 -3 -4 -6 -8 -7 -8 -9 -4 -2 2 5 3 -12 -12 -12 -12 -11 -11 -12 -12
5 4 2 1 2 2 2 -0 -0 -2 -2 -3 -4 -4 -3 -2 -4 -2 -2 -4 -5 -6 -7 -6 -3 -3 0 -2 -4 -5 -5 -7 -6 3 3 0 -4 -6 -6 -8 -10 -12 -12 -12 -12
4 3 3 4 2 2 1 1 1 1 -2 -3 -2 -2 -2 -1 -2 -2 -2 -3 -4 -5 -6 -4 -2 -3 -4 -5 -6 -6 -5 -4 -5 -7 -4 -6 -4 -6 -8 -8 -8 -10 -10 -11 -12
5 3 3 3 2 1 2 2 1 0 -1 -1 -1 -2 -3 -2 -3 -2 -2 -2 -2 -2 -4 -5 -1 -4 -3 -4 -4 -5 -5 -5 -5 -6 -6 -7 -6 -9 -8 -8 -8 -8 -9 -10 -11
4 5 4 3 1 3 3 1 0 -1 -1 -2 -2 -1 -1 -2 -4 -4 -4 -4 -3 -1 -2 -2 -1 -1 1 -4 -5 -2 -4 -5 -5 -6 -6 -4 -6 -6 -7 -6 -7 -7 -8 -9 -10

GFSSW_850_dewp_291.txt.gz
Dewpoint
-3 -3 -2 -3 -3 -4 -4 -5 -5 -6 -6 -6 -6 -7 -8 -7 -7 -7 -8 -10 -11 -7 -3 1 2 2 2 1 -1 2 6 6 3 3 -0 -4 -5 -7 -8 -10 -10 -9 -8 -8 -8
-3 -2 -3 -2 -3 -4 -4 -4 -5 -5 -6 -6 -6 -8 -10 -8 -6 -6 -9 -11 -10 -5 -1 3 4 2 2 -0 -2 -0 5 2 -1 -2 -2 -3 -5 -6 -9 -10 -9 -8 -8 -8 -13
-4 -3 -2 -3 -2 -3 -4 -3 -5 -6 -6 -6 -7 -10 -9 -6 -2 -7 -9 -12 -10 -4 1 2 2 -1 -0 -1 -3 -2 1 -1 -2 -2 -3 -5 -6 -6 -8 -8 -10 -9 -9 -13 -12
-3 -4 -3 -2 -3 -3 -3 -4 -4 -6 -6 -6 -8 -11 -8 -2 -4 -8 -10 -13 -12 -3 -0 0 0 0 -0 -2 -4 -2 -5 -3 -4 -5 -5 -5 -6 -6 -6 -9 -8 -9 -11 -12 -12
-3 -3 -4 -4 -3 -3 -3 -3 -4 -5 -6 -6 -9 -11 -9 -4 -7 -9 -12 -11 -11 -4 1 0 -0 -1 -1 -4 -4 -4 -5 -6 -6 -6 -6 -6 -7 -7 -9 -10 -10 -10 -11 -12 -12
-2 -3 -3 -4 -4 -3 -3 -3 -4 -5 -7 -6 -8 -11 -7 -6 -7 -9 -12 -11 -10 -4 -3 -1 -2 -3 -4 -5 -4 -5 -6 -6 -6 -7 -6 -6 -7 -8 -9 -10 -11 -11 -11 -12 -13
-3 -3 -3 -4 -5 -5 -3 -3 -4 -4 -6 -6 -8 -11 -8 -8 -9 -10 -10 -11 -8 -3 -4 -2 -2 -3 -5 -5 -6 -7 -6 -6 -6 -7 -7 -7 -6 -7 -9 -11 -11 -11 -11 -12 -13
-3 -3 -4 -4 -5 -5 -4 -3 -4 -4 -6 -7 -8 -10 -8 -9 -10 -9 -6 -8 -8 -6 -6 -5 -3 -4 -5 -6 -6 -5 -5 -2 -5 -7 -8 -8 -5 -7 -10 -11 -12 -12 -12 -12 -12
-3 -4 -4 -4 -4 -5 -5 -3 -4 -4 -8 -7 -8 -9 -8 -11 -10 -10 -7 -6 -8 -9 -9 -8 -6 -7 -6 -4 -3 -4 -3 -2 -4 -7 -8 -8 -5 -10 -11 -12 -13 -13 -13 -12 -12
-0 -4 -5 -5 -4 -6 -4 -3 -4 -5 -8 -7 -8 -9 -9 -9 -9 -10 -9 -7 -6 -7 -5 -6 -5 -3 -3 -3 -3 -7 -8 -9 -3 -6 -7 -6 -7 -9 -11 -12 -12 -13 -13 -12 -12
6 -1 -4 -5 -5 -6 -3 -2 -2 -4 -7 -6 -8 -9 -9 -9 -10 -10 -10 -9 -8 -7 -6 -4 -5 -3 -7 -8 -8 -9 -9 -8 -5 -7 -7 -6 -6 -6 -10 -12 -12 -12 -13 -13 -12
6 5 -4 -5 -5 -3 -1 0 -2 -0 -1 -5 -7 -9 -10 -9 -9 -9 -10 -8 -7 -6 -6 -5 -4 -9 -9 -9 -9 -8 -8 -8 -7 -7 -8 -9 -8 -9 -9 -11 -12 -12 -12 -13 -13
4 5 -2 -4 -4 -1 0 -2 -3 -4 -2 -4 -6 -8 -9 -10 -8 -9 -10 -9 -8 -7 -6 -5 -6 -9 -9 -8 -7 -8 -8 -10 -10 -8 -8 -8 -6 -7 -8 -10 -11 -12 -12 -12 -13
4 4 1 -4 -1 -0 1 -3 -4 -6 -2 -4 -7 -7 -8 -8 -8 -8 -9 -7 -8 -7 -7 -7 -9 -8 -8 -7 -9 -7 -10 -10 -7 -5 -4 -8 -6 -6 -7 -7 -10 -11 -11 -11 -12
3 2 2 -4 -0 2 2 -2 -4 -3 1 -5 -7 -7 -8 -7 -7 -7 -9 -8 -7 -7 -8 -6 -8 -8 -7 -8 -11 -8 -9 -9 -7 -6 -5 -5 -5 -7 -7 -6 -7 -9 -10 -10 -11
1 2 4 -3 -3 -0 -1 -2 -3 1 2 -5 -7 -7 -8 -8 -7 -8 -7 -7 -7 -7 -8 -8 -11 -11 -10 -12 -12 -10 -8 -7 -4 -3 0 -3 -5 -8 -6 -7 -9 -8 -9 -10 -10
-0 2 5 -2 1 -1 -2 -2 1 1 -5 -4 -5 -6 -6 -6 -6 -7 -6 -6 -5 -4 -4 -7 -8 -13 -13 -10 -9 -8 -5 2 4 1 1 -7 -8 -8 -8 -9 -10 -9 -9 -9 -10
-1 1 5 1 -1 -2 -2 -1 2 -1 -5 -5 -5 -6 -5 -6 -6 -6 -6 -5 -6 -6 -5 -3 -3 -8 -12 -11 -8 -8 -6 0 -3 -0 -1 -6 -5 -8 -10 -11 -11 -11 -11 -10 -10
-2 1 5 4 -1 -3 0 2 -1 -3 -5 -4 -5 -4 -4 -6 -6 -6 -6 -5 -7 -7 -6 -5 -4 -12 -13 -14 -12 -7 -5 -8 -6 -2 -2 -3 -4 -8 -10 -10 -12 -12 -11 -11 -11
0 4 7 5 1 -3 1 2 -3 -5 -5 -5 -3 -4 -3 -4 -6 -5 -5 -6 -6 -7 -8 -7 -6 -9 -12 -13 -12 -11 -9 -4 -1 -2 2 -1 -3 -5 -7 -9 -10 -11 -12 -12 -12
3 5 6 5 1 -1 1 0 -3 -5 -5 -4 -3 -3 -4 -4 -5 -4 -5 -6 -6 -7 -7 -7 -7 -7 -9 -8 -7 -10 -9 -9 -6 0 -1 0 -5 -9 -9 -8 -11 -11 -12 -13 -13
6 5 4 5 -1 -1 -0 -3 -4 -5 -5 -4 -4 -3 -3 -4 -4 -4 -3 -4 -7 -8 -7 -7 -5 -4 -6 -10 -11 -10 -9 -8 1 -2 -3 2 -2 -7 -11 -9 -11 -13 -13 -13 -13
5 4 3 3 4 3 0 -2 -2 -2 -3 -3 -3 -3 -4 -4 -3 -3 -1 -4 -6 -7 -6 -8 -7 -4 -4 -5 -7 -9 -9 -10 -3 -0 1 1 -2 -8 -12 -12 -12 -11 -11 -11 -12
5 4 2 2 2 2 2 2 -0 -2 -2 -2 -3 -4 -4 -3 -4 -3 -1 -4 -6 -5 -7 -7 -5 -4 -0 -2 -3 -6 -6 -8 -7 -1 -3 -0 -5 -9 -8 -6 -7 -9 -9 -10 -11
5 4 3 3 2 2 2 2 2 1 -2 -3 -2 -2 -2 -1 -2 -3 -1 -3 -4 -5 -7 -6 -5 -4 -4 -4 -5 -5 -4 -5 -6 -7 -3 -6 -3 -6 -7 -8 -9 -8 -8 -8 -9
4 3 3 4 2 2 3 2 2 1 -1 -1 -1 -2 -2 -2 -2 -3 -2 -3 -3 -3 -5 -6 -4 -3 -3 -4 -4 -3 -5 -4 -5 -7 -7 -7 -7 -9 -9 -9 -7 -7 -8 -8 -8
2 5 4 3 2 3 3 2 1 -0 -1 -1 -2 -2 -1 -2 -4 -4 -4 -4 -3 -3 -3 -4 -3 -1 -1 -3 -4 -2 -4 -4 -5 -5 -6 -5 -6 -8 -7 -7 -7 -9 -11 -8 -9